Location: Unnamed
(47.6264°N, 122.3366°W)
Time: 07:46:56
(UTC-07:00)

X-37B - Pass Details

Date: 24 June 2021
Orbit: 383 x 392 km, 45.0° (Epoch: 01 July)

Event Time Altitude Azimuth Distance (km) Brightness Sun altitude
Rises 23:22:46 0° 254° (WSW) 2,253 4.6 -14.9°
Reaches altitude 10° 23:24:51 10° 248° (WSW) 1,401 3.4 -15.0°
Maximum altitude 23:27:55 48° 172° (S) 506 0.7 -15.2°
Enters shadow 23:28:52 34° 121° (ESE) 650 1.3 -15.3°
